Vorticity
7 7 7 7 6 6 6 6 7 7 7 7 7 7 8 7 7 6 5 4 3 1 0 -1 -0 0 1 2 4 5 7 10 13 15 16 13 9 7 5 5 7 7 8 9 10 11 12 13 13 12 11 11 10 10 10 10 10 10 9 9 8 8 7 7 8 8 8 9 9
8 8 8 8 8 8 8 8 8 8 8 8 8 7 7 7 6 5 4 3 1 0 -0 -0 1 2 2 4 6 7 10 12 15 16 14 10 7 5 5 6 7 8 9 10 11 12 13 13 12 11 11 10 10 10 10 10 9 9 8 8 8 8 7 8 8 8 9 9 8
9 9 9 9 9 9 9 8 8 8 8 8 8 7 7 6 5 4 2 1 0 -0 -0 1 2 3 4 5 7 10 12 15 16 14 11 7 5 5 6 7 8 9 10 11 12 12 13 12 12 11 11 10 10 10 10 9 9 8 8 8 7 8 8 8 9 8 8 8 8
10 10 10 10 10 9 9 9 8 8 8 8 7 7 6 5 4 2 1 0 -0 -0 1 2 3 4 5 7 8 11 14 17 15 11 7 5 5 6 7 8 9 10 11 12 13 13 12 12 11 11 11 10 10 10 9 8 8 8 8 8 8 8 9 9 9 8 8 8 8
11 11 11 10 10 9 9 9 9 8 8 7 6 5 4 3 2 1 -0 -1 -0 1 1 2 3 5 7 8 10 13 16 16 12 8 5 5 6 6 7 9 10 11 12 13 13 12 12 11 11 11 11 10 10 9 8 8 8 8 8 8 9 9 9 9 9 8 8 8 8
11 11 11 10 10 9 9 9 8 8 7 6 5 4 3 2 1 0 -0 -0 0 1 2 3 4 6 8 10 14 16 16 13 8 6 5 6 7 7 8 10 11 12 13 13 13 12 11 11 11 11 10 9 9 8 8 8 8 8 8 9 9 9 9 9 8 8 8 8 7
11 11 10 10 10 10 9 8 8 7 6 5 4 3 2 1 0 -0 -0 0 1 1 3 4 6 8 10 13 16 16 13 9 6 5 6 7 7 8 9 10 12 13 13 13 12 12 11 11 10 10 9 9 8 8 8 8 8 8 9 9 9 9 9 8 8 8 7 7 7
11 11 10 10 9 9 8 7 6 5 5 4 3 2 1 0 -0 -0 -0 1 2 2 3 5 8 10 12 15 15 13 10 6 5 6 7 8 8 9 10 11 13 13 13 12 12 11 11 11 10 9 9 8 8 8 8 8 9 9 9 9 9 9 8 8 7 7 7 7 6
11 11 10 9 9 8 7 6 5 4 3 2 2 1 0 -0 -1 -0 1 2 3 3 5 7 9 12 14 16 14 10 7 5 6 7 7 8 9 10 11 12 13 13 13 12 12 11 11 10 10 9 8 8 8 8 8 8 9 9 9 9 8 8 8 7 7 7 7 6 6
10 10 9 8 7 6 5 4 3 2 2 1 1 0 -1 -1 -0 1 2 3 3 5 8 10 12 14 16 15 11 8 6 6 7 7 8 8 10 11 12 13 13 13 12 12 11 11 10 10 9 8 8 8 8 8 9 9 9 9 9 9 8 8 7 7 7 6 6 6 6
9 8 7 6 5 4 3 3 2 2 1 1 0 -0 -1 -0 1 2 3 4 6 8 11 12 14 15 14 11 8 6 6 7 7 8 8 9 11 12 13 13 13 12 12 11 11 11 10 9 8 8 8 8 8 9 9 9 9 9 9 8 8 7 7 7 6 6 6 6 6
7 6 5 4 3 3 2 2 1 1 0 -0 -0 -0 -0 1 2 4 5 7 10 11 12 14 15 14 12 8 7 6 7 7 8 8 9 10 12 13 13 13 13 12 12 11 11 10 9 8 8 8 8 8 9 9 9 9 9 8 8 7 7 7 7 6 6 6 6 5 5
5 4 3 3 3 2 2 1 1 0 -0 -0 -1 -0 1 2 4 6 8 10 11 12 13 15 14 12 9 7 7 7 7 7 8 9 10 12 13 13 13 13 12 12 11 11 10 9 9 8 8 8 8 8 9 9 9 9 8 8 8 7 7 7 6 6 6 6 5 5 5
3 3 2 2 2 1 1 1 1 0 -0 -1 -0 1 2 5 8 10 11 11 12 13 14 14 12 9 7 6 7 7 7 8 9 10 11 13 13 13 13 12 12 11 11 10 9 9 8 8 8 8 9 9 9 9 9 8 8 8 7 7 7 6 6 6 5 5 5 5 5
3 2 2 2 2 1 1 1 0 -0 -0 -0 1 3 6 9 11 11 12 12 13 13 13 12 9 8 7 6 7 7 7 8 10 11 12 13 13 13 12 12 11 11 10 9 9 8 8 8 8 9 9 9 9 8 8 8 8 7 7 7 6 6 6 5 5 5 5 5 5
2 2 2 2 2 1 1 1 0 -0 0 1 3 6 10 12 12 13 13 13 13 13 12 9 8 7 6 6 7 7 8 9 11 12 13 13 13 12 12 11 11 11 10 9 8 8 8 9 9 9 9 9 8 8 8 8 7 7 7 6 6 6 5 5 5 5 5 5 5
2 2 2 2 2 1 1 0 -0 0 1 3 7 10 13 13 13 14 14 14 13 11 9 8 7 6 6 6 7 8 9 11 12 13 13 13 12 12 12 11 11 10 9 8 8 8 8 9 9 9 8 8 8 8 7 7 7 7 6 6 6 6 5 5 5 5 5 5 5
2 2 2 2 2 1 0 -0 0 1 4 7 11 13 15 14 14 14 14 13 11 9 7 6 6 6 6 6 7 9 10 12 13 13 13 12 12 12 11 11 10 10 9 9 8 8 8 8 8 8 8 8 8 7 7 7 6 6 6 6 6 5 5 5 5 5 5 5 5
2 2 2 2 1 0 -0 0 2 4 7 11 14 15 15 14 14 13 12 11 9 7 7 6 6 6 7 7 8 10 12 13 13 13 13 12 12 11 11 11 10 9 9 9 8 8 8 8 8 8 8 8 7 7 7 6 6 6 6 6 5 5 5 5 5 5 5 5 5
2 2 1 1 -0 -0 1 2 4 8 11 15 16 16 14 13 13 11 10 8 7 7 6 6 6 6 7 8 9 11 13 14 13 13 12 12 12 11 11 10 9 9 9 8 8 8 8 8 8 8 7 7 7 7 6 6 6 6 6 6 5 5 5 5 5 5 5 5 5
2 2 1 -0 0 1 3 5 9 12 16 18 16 15 13 12 11 9 8 7 6 6 6 6 7 7 8 9 11 12 13 14 13 13 12 12 11 11 10 9 9 8 8 8 8 8 8 7 7 7 7 7 7 6 6 6 6 6 5 5 5 5 5 5 6 5 5 5 5
2 1 0 1 2 4 6 10 14 17 18 17 15 13 11 10 8 7 7 6 6 6 6 7 7 8 9 10 12 13 13 13 13 12 12 11 11 10 10 9 8 8 8 8 8 7 7 7 7 7 7 7 6 6 6 5 5 5 5 5 5 5 6 6 6 5 5 5 5
1 1 2 3 5 8 12 16 18 18 17 15 13 11 9 8 7 6 6 6 6 6 6 7 7 9 10 12 13 13 13 13 12 12 12 11 11 10 9 9 8 8 7 7 7 7 7 7 7 7 7 6 6 6 5 5 5 5 5 5 5 6 6 6 6 5 5 5 5
1 3 5 8 11 15 18 19 19 17 15 12 10 9 7 6 6 6 6 6 6 6 6 7 8 10 11 13 13 13 13 12 12 12 11 11 10 9 9 8 8 7 7 7 7 7 7 7 7 7 6 6 5 5 5 5 5 5 5 6 6 6 6 6 6 5 5 5 5
5 9 12 15 18 20 20 19 17 14 12 10 8 7 6 6 6 6 7 6 6 6 7 8 9 11 13 14 13 13 12 12 12 11 11 10 10 9 8 7 7 7 7 7 7 7 7 7 6 6 6 5 5 5 5 5 5 5 6 6 6 6 6 6 5 5 5 4 4
15 17 19 21 21 20 18 16 13 11 9 8 7 7 6 6 7 7 7 6 6 7 8 9 11 13 14 13 13 12 12 12 12 11 10 10 9 8 8 7 7 7 7 7 7 7 7 6 6 6 5 5 5 5 5 5 5 6 6 6 6 6 6 6 5 5 5 5 5
23 23 22 21 19 17 14 12 10 9 8 7 7 6 6 6 7 7 7 6 7 8 9 12 13 13 13 12 12 12 12 12 11 11 10 9 8 7 7 7 7 7 7 7 7 6 6 6 5 5 5 5 5 5 5 5 5 6 6 7 7 6 6 6 5 5 5 5 5
23 21 19 17 15 13 11 9 8 8 7 7 6 6 6 7 7 7 7 7 7 9 11 13 13 13 12 12 12 12 12 11 11 10 9 8 7 7 6 6 7 7 7 6 6 6 5 5 5 5 5 5 5 5 5 5 5 6 6 7 6 6 6 6 5 5 5 5 5
19 17 15 13 11 9 8 8 8 7 7 6 6 6 6 7 7 7 7 7 9 11 13 13 13 12 12 12 12 12 11 11 10 9 8 7 7 7 6 6 6 6 6 6 5 5 5 5 5 5 5 5 5 5 5 5 6 6 6 7 6 6 6 6 5 5 5 5 5
16 13 11 9 8 8 8 7 7 6 6 5 6 6 6 7 7 7 8 9 11 12 13 12 12 12 12 12 12 11 11 10 9 8 7 7 6 6 6 6 6 6 5 5 5 5 4 4 4 4 4 5 5 5 5 5 6 6 6 6 6 6 6 6 5 5 5 5 6
11 10 8 8 7 7 7 7 6 6 5 5 6 6 7 7 7 8 9 11 12 12 13 12 12 12 12 11 11 11 10 9 8 8 7 6 6 6 6 6 6 5 5 5 4 4 4 4 4 4 4 4 4 4 5 5 6 6 6 6 6 6 6 5 5 5 5 6 6
8 7 7 7 7 7 7 6 6 5 5 6 6 7 7 7 8 9 10 12 12 13 13 13 12 12 12 11 11 10 9 8 8 7 7 6 6 6 6 5 5 5 5 4 4 4 4 4 4 4 4 4 4 4 5 5 6 6 6 6 6 6 6 5 5 6 6 7 7
7 7 7 7 7 7 6 6 6 6 6 6 7 7 8 8 9 10 12 13 13 13 12 12 12 11 11 11 10 10 9 8 7 7 6 6 6 5 5 5 5 5 4 4 4 4 4 4 4 3 3 3 4 4 5 6 6 6 6 6 6 6 6 6 6 6 7 7 8
7 7 7 7 7 6 6 6 6 6 6 7 8 8 9 9 11 12 13 13 13 13 12 12 11 11 11 10 9 9 8 7 7 6 6 6 5 5 5 5 4 4 4 4 4 4 4 3 3 3 3 3 4 5 5 6 6 6 6 6 6 6 6 6 6 6 7 7 8
8 7 7 7 7 6 6 6 6 7 7 8 9 9 10 11 12 13 13 13 12 12 12 11 11 11 10 10 9 8 7 7 6 6 5 5 5 5 4 4 4 4 4 3 3 3 3 3 3 3 3 4 4 5 5 6 6 6 6 6 6 6 6 6 6 7 7 8 8
8 7 7 7 7 7 7 7 7 8 8 9 10 11 12 13 13 13 12 12 11 11 11 11 11 10 10 9 9 8 7 6 6 5 5 5 4 4 4 4 4 4 3 3 3 3 3 3 3 3 3 4 5 5 6 6 6 6 6 6 6 6 6 6 7 7 8 8 8
7 7 7 7 7 7 7 7 8 9 10 10 11 12 12 13 12 12 12 11 11 11 11 10 10 10 9 8 8 7 7 6 5 5 5 5 4 4 4 4 4 3 3 3 3 3 3 3 3 3 4 4 5 5 6 6 7 7 6 6 6 6 6 6 7 7 8 8 8
8 7 7 7 7 7 7 8 9 10 11 11 12 12 12 12 12 11 11 11 11 11 11 10 10 9 9 8 7 7 6 6 5 5 4 4 4 4 4 3 3 3 3 3 3 3 3 3 3 4 4 5 5 6 6 7 7 7 6 6 6 6 6 7 7 7 8 8 8
8 7 7 7 7 7 8 9 10 11 12 12 12 12 12 11 11 11 11 11 11 11 10 10 9 9 8 7 7 6 6 5 5 4 4 4 4 4 3 3 3 3 3 3 3 3 3 4 4 4 5 5 6 6 7 7 7 7 6 6 6 6 6 7 7 8 8 8 7
7 7 7 7 8 8 9 10 11 12 12 12 12 12 11 11 11 10 11 11 11 11 10 9 9 8 7 7 7 6 6 5 5 4 4 4 4 4 3 3 3 3 3 3 3 4 4 4 5 5 5 6 6 7 7 7 7 6 6 6 6 6 6 7 8 8 8 7 7
7 7 7 8 8 9 10 12 12 12 12 12 11 11 10 10 10 10 11 11 11 10 10 9 8 8 7 7 6 6 5 5 5 4 4 4 4 4 4 3 3 3 4 4 4 4 4 5 5 5 6 6 7 7 7 7 7 6 6 6 6 6 6 7 8 8 8 7 6
Height
5769 5771 5772 5773 5774 5775 5776 5777 5777 5778 5778 5779 5779 5779 5780 5780 5780 5781 5781 5781 5782 5782 5782 5783 5782 5782 5781 5780 5779 5778 5777 5777 5776 5776 5775 5774 5774 5773 5773 5772 5771 5770 5769 5768 5767 5766 5766 5765 5764 5763 5762 5761 5761 5760 5759 5758 5757 5756 5755 5753 5752 5750 5749 5747 5746 5745 5744 5743 5742
5767 5768 5769 5770 5771 5773 5774 5775 5775 5775 5776 5776 5776 5777 5777 5777 5778 5778 5779 5779 5780 5780 5780 5780 5780 5779 5778 5777 5776 5776 5775 5774 5773 5773 5772 5772 5771 5771 5770 5770 5769 5768 5767 5766 5765 5764 5763 5763 5762 5761 5760 5760 5759 5758 5757 5756 5755 5754 5753 5751 5750 5749 5747 5746 5744 5743 5742 5741 5740
5765 5766 5767 5768 5769 5770 5771 5772 5772 5773 5773 5773 5774 5774 5775 5775 5776 5776 5777 5777 5777 5778 5778 5777 5777 5776 5776 5775 5774 5773 5772 5771 5771 5771 5770 5769 5769 5768 5768 5767 5766 5766 5765 5764 5763 5762 5761 5761 5760 5759 5758 5757 5757 5756 5755 5754 5753 5752 5751 5750 5748 5747 5745 5744 5743 5741 5741 5739 5738
5762 5763 5765 5766 5767 5768 5769 5769 5770 5770 5771 5771 5771 5772 5773 5773 5774 5774 5775 5775 5775 5776 5775 5775 5775 5774 5773 5772 5771 5771 5770 5769 5769 5768 5767 5767 5766 5766 5766 5765 5764 5763 5762 5761 5761 5760 5759 5758 5758 5757 5756 5756 5755 5754 5753 5752 5751 5750 5749 5748 5746 5745 5744 5742 5741 5740 5739 5737 5736
5760 5761 5762 5763 5764 5765 5766 5766 5767 5768 5768 5769 5769 5770 5771 5771 5771 5772 5773 5773 5773 5773 5773 5772 5772 5771 5770 5770 5769 5768 5767 5767 5766 5766 5765 5764 5764 5764 5763 5762 5762 5761 5760 5759 5758 5757 5757 5756 5756 5755 5754 5753 5753 5751 5751 5750 5749 5747 5747 5746 5744 5743 5741 5741 5739 5738 5737 5736 5734
5757 5759 5760 5761 5761 5762 5763 5764 5765 5765 5766 5766 5767 5768 5768 5769 5770 5770 5771 5771 5771 5771 5770 5770 5769 5768 5768 5767 5766 5766 5765 5765 5764 5763 5763 5762 5761 5761 5761 5760 5760 5759 5758 5757 5756 5756 5755 5754 5753 5753 5752 5751 5751 5750 5748 5747 5746 5745 5744 5743 5742 5741 5740 5738 5737 5736 5735 5734 5732
5755 5756 5757 5758 5759 5760 5761 5761 5762 5763 5763 5764 5765 5766 5766 5767 5767 5768 5768 5769 5768 5768 5767 5767 5766 5766 5765 5765 5764 5763 5763 5762 5761 5761 5760 5760 5759 5759 5758 5758 5757 5756 5756 5755 5754 5753 5753 5752 5751 5751 5750 5749 5749 5747 5746 5745 5744 5743 5742 5741 5740 5739 5738 5737 5736 5734 5733 5732 5731
5753 5754 5755 5756 5756 5757 5758 5759 5760 5761 5761 5762 5763 5763 5764 5765 5766 5766 5766 5766 5766 5765 5765 5764 5764 5763 5762 5762 5761 5761 5761 5760 5759 5759 5758 5757 5757 5756 5756 5756 5755 5754 5753 5753 5752 5751 5751 5750 5749 5749 5748 5747 5746 5746 5744 5743 5742 5741 5740 5739 5738 5737 5736 5735 5734 5733 5732 5731 5729
5751 5751 5752 5753 5754 5755 5756 5757 5757 5758 5759 5760 5760 5761 5762 5763 5763 5764 5764 5763 5763 5762 5762 5761 5761 5760 5760 5760 5759 5759 5758 5758 5757 5756 5756 5755 5755 5754 5754 5753 5753 5752 5751 5751 5750 5750 5749 5748 5747 5747 5746 5745 5744 5743 5742 5741 5741 5739 5738 5737 5736 5735 5734 5733 5732 5731 5729 5728 5727
5748 5749 5750 5751 5752 5753 5753 5754 5755 5756 5756 5757 5758 5759 5760 5761 5761 5761 5761 5761 5760 5760 5759 5759 5758 5758 5757 5757 5757 5756 5756 5756 5755 5754 5754 5753 5753 5752 5752 5751 5751 5750 5749 5749 5748 5748 5747 5746 5746 5745 5744 5743 5742 5741 5740 5739 5738 5737 5736 5736 5735 5733 5732 5731 5730 5728 5727 5726 5725
5746 5747 5748 5749 5749 5750 5751 5752 5753 5753 5754 5755 5756 5757 5757 5758 5758 5758 5758 5758 5757 5757 5756 5756 5756 5755 5755 5755 5755 5754 5754 5753 5752 5752 5752 5751 5751 5750 5750 5749 5748 5748 5747 5747 5746 5746 5745 5744 5744 5743 5742 5741 5740 5739 5738 5737 5737 5736 5735 5733 5732 5731 5730 5729 5728 5726 5725 5724 5722
5743 5744 5745 5746 5747 5748 5749 5750 5750 5751 5752 5753 5754 5754 5755 5756 5756 5756 5756 5755 5755 5754 5754 5753 5753 5753 5753 5752 5752 5752 5751 5751 5750 5750 5750 5749 5749 5748 5748 5747 5746 5746 5746 5745 5744 5744 5743 5742 5742 5741 5740 5739 5738 5737 5736 5736 5735 5734 5732 5731 5730 5729 5728 5727 5726 5724 5723 5721 5720
5741 5742 5743 5744 5745 5746 5746 5747 5748 5749 5750 5750 5751 5752 5752 5753 5753 5753 5752 5752 5751 5751 5751 5751 5751 5751 5750 5750 5750 5749 5749 5749 5748 5748 5747 5747 5746 5746 5746 5745 5745 5744 5744 5743 5742 5742 5741 5741 5740 5739 5738 5737 5736 5736 5735 5733 5732 5731 5731 5729 5728 5727 5726 5725 5723 5722 5721 5719 5718
5738 5739 5740 5741 5742 5743 5744 5745 5746 5746 5747 5748 5749 5749 5750 5750 5750 5750 5750 5749 5749 5748 5748 5748 5748 5748 5748 5747 5747 5747 5747 5746 5746 5746 5746 5745 5745 5744 5744 5743 5743 5742 5742 5741 5741 5740 5739 5739 5738 5737 5736 5735 5734 5733 5732 5731 5730 5729 5728 5727 5726 5725 5724 5723 5721 5720 5719 5717 5716
5736 5737 5738 5739 5740 5741 5742 5742 5743 5744 5745 5746 5746 5746 5747 5747 5747 5747 5746 5746 5746 5746 5746 5746 5746 5746 5745 5745 5745 5745 5745 5745 5744 5744 5744 5743 5743 5742 5742 5741 5741 5741 5740 5739 5739 5738 5738 5737 5736 5735 5734 5733 5732 5731 5730 5729 5728 5727 5726 5725 5724 5723 5722 5721 5719 5718 5717 5715 5714
5733 5735 5736 5737 5738 5738 5739 5740 5741 5741 5742 5743 5743 5744 5744 5744 5744 5744 5744 5743 5743 5743 5743 5743 5743 5743 5743 5743 5743 5743 5743 5742 5742 5742 5741 5741 5741 5740 5740 5740 5739 5739 5738 5738 5737 5736 5736 5735 5734 5733 5732 5731 5730 5729 5728 5727 5726 5725 5724 5723 5722 5721 5720 5718 5717 5716 5715 5713 5712
5731 5732 5733 5734 5735 5736 5737 5737 5738 5739 5740 5740 5741 5741 5741 5741 5741 5741 5741 5741 5741 5741 5741 5741 5741 5740 5740 5741 5741 5741 5741 5741 5740 5740 5740 5739 5739 5738 5738 5738 5737 5737 5736 5736 5735 5734 5733 5733 5732 5731 5730 5729 5728 5727 5726 5726 5725 5724 5722 5721 5720 5719 5718 5716 5715 5714 5712 5711 5710
5728 5730 5731 5732 5732 5733 5734 5735 5736 5736 5737 5738 5738 5738 5738 5738 5738 5738 5738 5738 5738 5739 5739 5738 5738 5738 5738 5738 5738 5739 5739 5739 5738 5738 5737 5737 5736 5736 5736 5736 5735 5735 5734 5734 5733 5732 5731 5731 5730 5729 5728 5727 5726 5726 5725 5724 5723 5722 5721 5720 5718 5717 5716 5715 5713 5712 5711 5709 5707
5726 5727 5728 5729 5730 5730 5731 5732 5733 5734 5734 5735 5736 5736 5735 5735 5735 5735 5736 5736 5736 5736 5736 5736 5736 5736 5736 5736 5736 5736 5736 5736 5736 5736 5736 5735 5735 5734 5734 5734 5733 5733 5733 5732 5731 5731 5730 5729 5728 5727 5726 5726 5725 5724 5723 5722 5721 5720 5719 5718 5716 5715 5714 5713 5711 5710 5708 5707 5705
5723 5724 5725 5726 5726 5727 5728 5729 5730 5731 5732 5732 5732 5732 5732 5732 5732 5733 5733 5733 5734 5734 5734 5734 5734 5734 5734 5734 5734 5734 5734 5734 5734 5734 5733 5733 5733 5732 5732 5732 5732 5731 5731 5730 5729 5729 5728 5727 5726 5725 5725 5724 5723 5722 5721 5720 5719 5718 5717 5716 5715 5713 5712 5711 5709 5708 5706 5705 5703
5720 5721 5722 5723 5724 5725 5726 5726 5727 5728 5729 5729 5729 5729 5729 5730 5730 5730 5731 5731 5731 5731 5732 5732 5732 5732 5732 5732 5732 5732 5732 5732 5732 5732 5731 5731 5731 5731 5731 5730 5730 5730 5729 5728 5727 5726 5726 5725 5724 5724 5723 5722 5721 5720 5719 5718 5717 5716 5715 5714 5713 5712 5710 5709 5707 5706 5704 5702 5700
5717 5718 5719 5720 5721 5722 5723 5724 5725 5725 5726 5726 5726 5726 5726 5727 5727 5728 5728 5729 5729 5729 5730 5730 5730 5730 5730 5730 5730 5730 5730 5730 5730 5730 5730 5729 5729 5729 5729 5729 5728 5728 5727 5726 5725 5725 5724 5723 5722 5722 5721 5720 5719 5718 5717 5717 5716 5715 5714 5712 5711 5710 5708 5707 5705 5703 5701 5700 5698
5714 5715 5716 5717 5718 5719 5720 5721 5721 5722 5723 5723 5723 5724 5724 5724 5725 5725 5726 5726 5727 5727 5728 5728 5728 5728 5728 5728 5728 5728 5728 5728 5728 5728 5728 5728 5727 5727 5727 5727 5726 5726 5725 5724 5723 5723 5722 5721 5721 5720 5719 5718 5717 5716 5716 5715 5714 5713 5712 5711 5709 5708 5706 5705 5703 5701 5699 5697 5695
5711 5712 5713 5714 5716 5716 5717 5718 5719 5719 5720 5720 5721 5721 5721 5722 5722 5723 5724 5724 5725 5725 5726 5726 5726 5726 5726 5726 5726 5726 5726 5726 5726 5726 5726 5726 5726 5726 5725 5725 5724 5724 5723 5722 5721 5721 5720 5720 5719 5718 5717 5716 5716 5715 5714 5713 5712 5711 5710 5708 5707 5706 5704 5702 5700 5698 5696 5695 5693
5708 5709 5711 5711 5713 5713 5714 5715 5716 5716 5717 5717 5718 5718 5719 5720 5721 5721 5722 5722 5723 5723 5723 5724 5724 5724 5725 5725 5725 5725 5725 5725 5725 5725 5725 5724 5724 5724 5723 5723 5722 5721 5721 5720 5720 5719 5719 5718 5717 5716 5716 5715 5714 5713 5712 5711 5710 5709 5708 5706 5705 5703 5701 5700 5698 5696 5694 5692 5690
5705 5706 5707 5709 5710 5711 5711 5712 5713 5714 5714 5715 5715 5716 5717 5718 5719 5719 5720 5721 5721 5721 5721 5722 5722 5722 5723 5723 5723 5723 5723 5723 5723 5723 5723 5723 5722 5722 5721 5721 5720 5720 5719 5719 5718 5717 5717 5716 5716 5715 5714 5713 5712 5711 5710 5709 5708 5707 5706 5704 5703 5701 5699 5697 5696 5694 5691 5690 5688
5702 5703 5704 5706 5707 5708 5709 5710 5710 5711 5711 5712 5713 5714 5715 5716 5717 5717 5718 5718 5719 5719 5719 5720 5720 5721 5721 5721 5721 5721 5721 5721 5721 5721 5721 5721 5721 5720 5719 5719 5718 5718 5717 5717 5716 5716 5715 5715 5714 5713 5712 5711 5711 5710 5709 5707 5706 5705 5704 5702 5701 5699 5697 5695 5693 5691 5689 5687 5685
5699 5700 5701 5703 5704 5705 5706 5707 5707 5708 5709 5710 5711 5712 5713 5714 5715 5715 5716 5716 5716 5717 5718 5718 5718 5718 5718 5719 5719 5719 5719 5720 5720 5720 5719 5719 5718 5718 5717 5717 5716 5716 5716 5715 5715 5714 5713 5713 5712 5711 5711 5710 5709 5708 5707 5706 5705 5703 5702 5700 5699 5697 5695 5693 5691 5689 5686 5684 5682
5696 5697 5699 5701 5702 5703 5703 5704 5705 5706 5707 5708 5709 5711 5711 5712 5713 5713 5713 5714 5715 5715 5716 5716 5716 5716 5716 5717 5717 5717 5717 5718 5718 5718 5717 5717 5716 5716 5716 5716 5715 5715 5714 5714 5713 5712 5712 5711 5711 5710 5709 5708 5707 5706 5705 5704 5703 5701 5700 5698 5696 5695 5693 5691 5688 5686 5684 5682 5680
5694 5696 5697 5698 5699 5700 5701 5702 5703 5704 5705 5706 5707 5709 5709 5710 5711 5711 5711 5712 5713 5713 5714 5714 5714 5715 5715 5715 5715 5716 5716 5716 5716 5716 5715 5715 5715 5715 5714 5714 5713 5713 5712 5712 5711 5711 5710 5710 5709 5708 5707 5706 5706 5704 5703 5702 5701 5699 5698 5696 5694 5692 5690 5688 5686 5684 5682 5680 5678
5691 5693 5695 5696 5697 5698 5699 5700 5701 5702 5703 5705 5706 5706 5707 5708 5709 5709 5710 5711 5711 5711 5712 5712 5712 5713 5713 5713 5713 5714 5714 5714 5714 5714 5713 5713 5713 5713 5712 5712 5712 5711 5711 5710 5710 5709 5708 5708 5707 5706 5706 5705 5704 5702 5701 5700 5699 5697 5696 5694 5692 5690 5688 5686 5684 5682 5680 5678 5676
5689 5691 5692 5693 5694 5696 5697 5698 5699 5701 5702 5703 5704 5705 5705 5706 5706 5707 5708 5708 5709 5710 5710 5710 5711 5711 5711 5711 5711 5712 5712 5712 5712 5711 5711 5711 5711 5711 5711 5711 5710 5710 5709 5709 5708 5707 5707 5706 5706 5705 5704 5703 5702 5701 5699 5698 5696 5695 5693 5691 5690 5688 5686 5684 5681 5680 5677 5676 5673
5687 5688 5690 5691 5692 5694 5695 5696 5698 5699 5700 5701 5702 5703 5703 5704 5705 5705 5706 5706 5707 5708 5708 5708 5709 5709 5709 5710 5710 5710 5710 5710 5710 5710 5710 5710 5709 5709 5709 5709 5708 5708 5707 5707 5706 5706 5705 5704 5704 5703 5702 5701 5700 5698 5697 5696 5694 5692 5691 5689 5687 5685 5683 5681 5679 5677 5675 5673 5671
5685 5686 5688 5689 5690 5692 5693 5695 5696 5697 5698 5699 5700 5701 5701 5702 5703 5704 5704 5705 5705 5706 5706 5706 5706 5707 5707 5707 5708 5708 5708 5708 5708 5708 5708 5708 5708 5707 5707 5707 5706 5706 5706 5705 5705 5704 5703 5703 5702 5701 5700 5699 5697 5696 5695 5693 5692 5690 5688 5687 5685 5683 5681 5679 5677 5675 5673 5671 5669
5683 5684 5686 5687 5689 5690 5691 5692 5694 5695 5696 5697 5698 5699 5700 5701 5701 5702 5702 5703 5703 5704 5704 5704 5705 5705 5705 5706 5706 5706 5706 5706 5706 5706 5706 5706 5706 5706 5706 5705 5705 5705 5704 5704 5703 5702 5702 5701 5700 5699 5698 5697 5695 5694 5692 5691 5690 5688 5686 5684 5682 5681 5679 5677 5675 5673 5671 5669 5666
5682 5683 5684 5686 5687 5688 5690 5691 5692 5693 5694 5695 5696 5697 5698 5699 5699 5700 5700 5701 5701 5702 5702 5702 5703 5703 5703 5704 5704 5704 5704 5704 5705 5705 5704 5704 5704 5704 5704 5704 5703 5703 5702 5702 5701 5701 5700 5699 5698 5697 5696 5695 5693 5692 5691 5689 5687 5686 5684 5682 5680 5678 5676 5674 5672 5670 5668 5666 5664
5680 5681 5683 5684 5686 5687 5688 5689 5690 5691 5692 5693 5694 5695 5696 5697 5697 5698 5698 5699 5699 5700 5700 5701 5701 5701 5702 5702 5702 5702 5703 5703 5703 5703 5703 5703 5703 5702 5702 5702 5702 5701 5701 5700 5700 5699 5698 5697 5696 5695 5694 5693 5691 5690 5688 5686 5685 5683 5681 5680 5678 5676 5674 5672 5670 5668 5666 5664 5661
5679 5680 5681 5683 5684 5685 5686 5687 5689 5690 5691 5692 5693 5694 5694 5695 5696 5696 5696 5697 5697 5698 5698 5699 5699 5700 5700 5700 5701 5701 5701 5701 5701 5701 5701 5701 5701 5701 5701 5701 5700 5700 5699 5699 5698 5697 5696 5695 5694 5693 5692 5691 5689 5688 5686 5684 5683 5681 5679 5677 5676 5674 5672 5670 5668 5666 5664 5661 5659
5678 5679 5680 5681 5682 5683 5685 5686 5687 5688 5689 5690 5691 5691 5692 5693 5693 5694 5695 5695 5696 5696 5696 5697 5697 5698 5698 5698 5699 5699 5699 5699 5700 5700 5699 5699 5699 5699 5699 5699 5698 5698 5697 5697 5696 5695 5694 5693 5692 5691 5690 5688 5687 5685 5684 5682 5681 5679 5677 5675 5674 5671 5670 5668 5666 5664 5661 5659 5657
5676 5677 5679 5680 5681 5682 5683 5684 5685 5686 5687 5688 5689 5690 5690 5691 5691 5692 5693 5693 5694 5694 5695 5695 5696 5696 5696 5697 5697 5697 5698 5698 5698 5698 5698 5698 5698 5697 5697 5697 5696 5696 5696 5695 5694 5693 5692 5691 5690 5689 5688 5686 5685 5683 5681 5680 5678 5676 5675 5673 5671 5669 5667 5665 5663 5661 5659 5657 5655
5675 5676 5677 5678 5679 5681 5681 5682 5684 5685 5685 5686 5687 5688 5688 5689 5690 5690 5691 5691 5692 5692 5693 5693 5694 5694 5695 5695 5696 5696 5696 5696 5696 5696 5696 5696 5696 5696 5696 5695 5695 5694 5694 5693 5692 5691 5691 5690 5688 5687 5686 5684 5682 5681 5679 5678 5676 5674 5672 5671 5669 5667 5665 5663 5661 5659 5657 5655 5652